Location: Days
(41.3591°N, 106.7339°W)
Time: 19:42:10
(UTC+00:00)

RS-15 - Pass Details

Date: 03 July 2022
Orbit: 1881 x 2163 km, 64.8° (Epoch: 15 August)

Event Time Altitude Azimuth Distance (km) Brightness Sun altitude
Rises 04:53:03 0° 322° (NW) 5,693 12.2 -18.2°
Reaches altitude 10° 04:56:53 10° 330° (NNW) 4,691 11.3 -18.5°
Maximum altitude 05:08:35 45° 40° (NE) 2,741 8.9 -19.7°
Enters shadow 05:19:28 11° 110° (ESE) 4,455 9.5 -20.7°
